{"data":{"norad_id":68659,"intl_designator":"2026-076D","name":"HULIANWANG DIGUI-167","alt_names":[],"object_type":"PAYLOAD","status":"ACTIVE","operator":null,"country":"PRC","launch_date":"2026-04-08","launch_site_code":"TAISC","launch_vehicle":null,"mission":null,"orbit_class":"UNKNOWN","rcs_meters":null,"size_class":null,"mass_kg":null,"dimensions":null,"purposes":[],"wikipedia_slug":null,"has_3d_model":false,"image_url":null,"decayed_at":null,"tle_current":{"epoch":"2026-09-20T05:15:43.005600Z","epoch_age_seconds":87538,"freshness":"FRESH","line1":"1 68659U 26076D   26263.21924775  .00000016  00000+0  32649-5 0  9996","line2":"2 68659  86.5048  11.8058 0001365 113.4469 246.6809 13.24410494 21957","mean_motion":13.24410494,"eccentricity":0.0001365,"inclination_deg":86.5048,"raan_deg":11.8058,"arg_perigee_deg":113.4469,"mean_anomaly_deg":246.6809,"bstar":3.2649e-6,"rev_number":2195,"period_min":108.72761930864,"perigee_km":1166.89027237,"apogee_km":1168.9503460154,"semimajor_km":7546.0573091927,"source":"CELESTRAK","updated_at":"2026-09-20T09:00:24.398751Z"}}}